This demonstration page uses our WeatherBlox Daily Observations layout. Learn more.

Left ArrowRight Arrow

38.89511, -77.03637

Hourly Observations for June 19, 2022

Temp ( °F °C ) Dew Point ( °F °C ) Humidity (%) Winds ( mph kmh ) Pressure ( in mb ) Visibility ( mi km ) Precip ( " mm )
12:52 am 00:52 Clear 67 19.4 37 2.8 33 33 NNW 13 20 30.01 1016 10 16 0.00 0.00
1:52 am 01:52 Mostly Clear 65 18.3 37 2.8 36 36 NNW 12 19 30.03 1017 10 16 0.00 0.00
2:52 am 02:52 Mostly Clear 64 17.8 35 1.7 34 34 NNW 13 20 30.04 1017 10 16 0.00 0.00
3:52 am 03:52 Clear 61 16.1 35 1.7 38 38 NNW 9 15 30.04 1017 10 16 0.00 0.00
4:52 am 04:52 Clear 60 15.6 35 1.7 39 39 NNW 10 17 30.06 1018 10 16 0.00 0.00
5:52 am 05:52 Sunny 61 16.1 35 1.7 38 38 NW 14 22 30.07 1018 10 16 0.00 0.00
6:52 am 06:52 Mostly Sunny 61 16.1 40 4.4 46 46 NW 15 24 30.09 1019 10 16 0.00 0.00
7:52 am 07:52 Sunny 64 17.8 42 5.6 45 45 NW 14 22 30.10 1019 10 16 0.00 0.00
8:52 am 08:52 Sunny 66 18.9 41 5 40 40 NW 15 24 30.12 1020 10 16 0.00 0.00
9:52 am 09:52 Sunny 69 20.6 41 5 36 36 NW 14 22 30.11 1020 10 16 0.00 0.00
10:52 am 10:52 Sunny 70 21.1 39 3.9 32 32 NNW 18 30 30.11 1020 10 16 0.00 0.00
11:52 am 11:52 Mostly Sunny 71 21.7 39 3.9 31 31 NW 16 26 30.10 1019 10 16 0.00 0.00
12:52 pm 12:52 Mostly Sunny 74 23.3 40 4.4 29 29 NNW 18 30 30.09 1019 10 16 0.00 0.00
1:52 pm 13:52 Mostly Sunny 76 24.4 39 3.9 26 26 NW 18 30 30.07 1018 10 16 0.00 0.00
2:52 pm 14:52 Mostly Sunny 78 25.6 36 2.2 22 22 NW 21 33 30.06 1018 10 16 0.00 0.00
3:52 pm 15:52 Partly Cloudy 79 26.1 36 2.2 21 21 WNW 22 35 30.05 1018 9 14 0.00 0.00
4:52 pm 16:52 Mostly Sunny 80 26.7 37 2.8 21 21 NNW 21 33 30.05 1018 10 16 0.00 0.00
5:52 pm 17:52 Partly Cloudy 79 26.1 38 3.3 23 23 NW 18 30 30.04 1017 10 16 0.00 0.00
6:52 pm 18:52 Mostly Cloudy 78 25.6 37 2.8 23 23 NW 17 28 30.04 1017 10 16 0.00 0.00
7:52 pm 19:52 Mostly Cloudy 76 24.4 36 2.2 23 23 NW 14 22 30.05 1018 10 16 0.00 0.00
8:52 pm 20:52 Mostly Cloudy 74 23.3 36 2.2 25 25 WNW 7 11 30.06 1018 10 16 0.00 0.00
9:52 pm 21:52 Mostly Cloudy 73 22.8 37 2.8 27 27 WNW 10 17 30.08 1019 10 16 0.00 0.00
10:52 pm 22:52 Mostly Cloudy 72 22.2 34 1.1 25 25 NW 8 13 30.10 1019 10 16 0.00 0.00
11:52 pm 23:52 Mostly Cloudy 71 21.7 33 0.6 25 25 NW 9 15 30.12 1020 10 16 0.00 0.00

Powered by AerisWeather